WB5TZJ Weather Reports


time (UTC)temp
C
wind
direction
speed
KPH
gust
KPH
rain 1hr
cm
rain 24hr
cm
rain mn
cm
humidity
%
barometer
mb
20260504034036 22 0 0.0 0.0 0.00 0.00 0.00 45 1014.9
20260504033036 22 0 0.0 0.0 0.00 0.00 0.00 47 1014.9
20260504032036 22 0 0.0 0.0 0.00 0.00 0.00 46 1014.9
20260504031036 22 0 0.0 0.0 0.00 0.00 0.00 44 1015.2
20260504030036 22 0 0.0 0.0 0.00 0.00 0.00 44 1015.2
20260504025036 22 0 0.0 0.0 0.00 0.00 0.00 44 1015.2
20260504024036 22 0 0.0 0.0 0.00 0.00 0.00 44 1015.2
20260504023036 22 0 0.0 0.0 0.00 0.00 0.00 45 1015.2
20260504022036 22 0 0.0 0.0 0.00 0.00 0.00 47 1014.9
20260504021036 22 0 0.0 0.0 0.00 0.00 0.00 43 1014.9
20260504020036 22 0 0.0 0.0 0.00 0.00 0.00 45 1014.9
20260504015036 22 0 0.0 0.0 0.00 0.00 0.00 44 1014.5
20260504014036 22 0 0.0 0.0 0.00 0.00 0.00 44 1014.5
20260504013036 22 0 0.0 0.0 0.00 0.00 0.00 42 1014.5
20260504012036 22 0 0.0 0.0 0.00 0.00 0.00 43 1014.9
20260504011036 22 0 0.0 0.0 0.00 0.00 0.00 46 1014.5
20260504010036 22 0 0.0 0.0 0.00 0.00 0.00 45 1014.9
20260504005036 22 0 0.0 0.0 0.00 0.00 0.00 42 1014.9
20260504004036 22 0 0.0 0.0 0.00 0.00 0.00 42 1014.9
20260504003037 22 0 0.0 0.0 0.00 0.00 0.00 44 1014.9
20260504002037 22 0 0.0 0.0 0.00 0.00 0.00 47 1014.5
20260504001037 22 0 0.0 0.0 0.00 0.00 0.00 45 1014.5
20260504000037 22 0 0.0 0.0 0.00 0.00 0.00 45 1014.5
20260503235037 22 0 0.0 0.0 0.00 0.00 0.00 46 1014.9
20260503234037 22 0 0.0 0.0 0.00 0.00 0.00 46 1014.9
20260503233037 22 0 0.0 0.0 0.00 0.00 0.00 46 1014.9
20260503232037 22 0 0.0 0.0 0.00 0.00 0.00 45 1014.9
20260503231037 22 0 0.0 0.0 0.00 0.00 0.00 46 1014.9
20260503230037 22 0 0.0 0.0 0.00 0.00 0.00 46 1014.9
20260503225037 22 0 0.0 0.0 0.00 0.00 0.00 42 1015.2
20260503224037 22 0 0.0 0.0 0.00 0.00 0.00 43 1015.2
20260503223037 22 0 0.0 0.0 0.00 0.00 0.00 45 1014.9
20260503222037 22 0 0.0 0.0 0.00 0.00 0.00 43 1015.2
20260503221037 22 0 0.0 0.0 0.00 0.00 0.00 45 1015.2
20260503220037 22 0 0.0 0.0 0.00 0.00 0.00 46 1015.2
20260503215037 22 0 0.0 0.0 0.00 0.00 0.00 45 1015.5
20260503214037 22 0 0.0 0.0 0.00 0.00 0.00 45 1015.5
20260503213037 22 0 0.0 0.0 0.00 0.00 0.00 46 1015.9
20260503212037 22 0 0.0 0.0 0.00 0.00 0.00 45 1016.2
20260503211037 22 0 0.0 0.0 0.00 0.00 0.00 45 1016.5
20260503210037 22 0 0.0 0.0 0.00 0.00 0.00 43 1016.9
20260503205037 22 0 0.0 0.0 0.00 0.00 0.00 46 1017.2
20260503204037 22 0 0.0 0.0 0.00 0.00 0.00 46 1017.2
20260503203037 22 0 0.0 0.0 0.00 0.00 0.00 44 1017.2
20260503202037 22 0 0.0 0.0 0.00 0.00 0.00 46 1017.6
20260503201038 22 0 0.0 0.0 0.00 0.00 0.00 43 1017.9
20260503200037 22 0 0.0 0.0 0.00 0.00 0.00 44 1018.2
20260503195037 22 0 0.0 0.0 0.00 0.00 0.00 43 1018.2
20260503194037 22 0 0.0 0.0 0.00 0.00 0.00 44 1018.2
20260503193037 22 0 0.0 0.0 0.00 0.00 0.00 43 1018.6
20260503192037 22 0 0.0 0.0 0.00 0.00 0.00 46 1018.6
20260503191037 22 0 0.0 0.0 0.00 0.00 0.00 46 1018.9
20260503190038 22 0 0.0 0.0 0.00 0.00 0.00 43 1018.9
20260503185038 22 0 0.0 0.0 0.00 0.00 0.00 45 1019.3
20260503184038 22 0 0.0 0.0 0.00 0.00 0.00 47 1019.6
20260503183038 22 0 0.0 0.0 0.00 0.00 0.00 45 1019.6
20260503182038 22 0 0.0 0.0 0.00 0.00 0.00 47 1019.6
20260503181038 22 0 0.0 0.0 0.00 0.00 0.00 47 1019.9
20260503180038 22 0 0.0 0.0 0.00 0.00 0.00 46 1020.3
20260503175038 22 0 0.0 0.0 0.00 0.00 0.00 47 1020.3
20260503174038 22 0 0.0 0.0 0.00 0.00 0.00 46 1020.6
20260503173038 22 0 0.0 0.0 0.00 0.00 0.00 45 1020.9
20260503172038 22 0 0.0 0.0 0.00 0.00 0.00 47 1020.9
20260503171038 22 0 0.0 0.0 0.00 0.00 0.00 46 1021.3
20260503131039 23 0 0.0 0.0 0.00 0.00 0.00 46 1021.6
20260503081039 22 0 0.0 0.0 0.00 0.00 0.00 46 1020.3
20260503072039 22 0 0.0 0.0 0.00 0.00 0.00 46 1020.9
20260503071040 22 0 0.0 0.0 0.00 0.00 0.00 46 1020.6
20260503055040 22 0 0.0 0.0 0.00 0.00 0.00 47 1020.9
20260503054040 22 0 0.0 0.0 0.00 0.00 0.00 45 1020.9
20260503053040 22 0 0.0 0.0 0.00 0.00 0.00 46 1020.6
20260503052040 22 0 0.0 0.0 0.00 0.00 0.00 46 1020.6
20260503051040 22 0 0.0 0.0 0.00 0.00 0.00 44 1020.6
20260503050040 22 0 0.0 0.0 0.00 0.00 0.00 47 1020.6
20260503045040 22 0 0.0 0.0 0.00 0.00 0.00 47 1020.3
20260503044040 22 0 0.0 0.0 0.00 0.00 0.00 47 1020.3
20260503043040 22 0 0.0 0.0 0.00 0.00 0.00 46 1020.6
20260503042040 22 0 0.0 0.0 0.00 0.00 0.00 46 1020.3
20260503041040 22 0 0.0 0.0 0.00 0.00 0.00 47 1020.3
20260503040040 22 0 0.0 0.0 0.00 0.00 0.00 45 1020.6
20260503035040 22 0 0.0 0.0 0.00 0.00 0.00 46 1020.3